EW8359 Weather Reports


time (UTC)temp
F
wind
direction
speed
knots
gust
knots
rain 1hr
in
rain 24hr
in
rain mn
in
humidity
%
barometer
mb
20260505070018 52 128 0.0 0.0 0.00 0.00 0.00 68 1006.5
20260505064508 54 129 0.0 0.9 0.00 0.00 0.00 63 1006.5
20260505063006 56 128 0.0 5.2 0.00 0.00 0.00 59 1006.5
20260505061505 56 203 0.0 4.3 0.00 0.00 0.00 59 1006.5
20260505054600 57 217 0.0 2.6 0.00 0.00 0.00 58 1006.5
20260505053103 56 175 0.0 1.7 0.00 0.00 0.00 58 1006.4
20260505051555 57 182 0.0 8.7 0.00 0.00 0.00 57 1006.6
20260505050124 57 99 0.0 0.9 0.00 0.00 0.00 57 1006.7
20260505041601 58 290 0.0 4.3 0.00 0.00 0.00 55 1006.4
20260505040054 58 255 0.0 6.1 0.00 0.00 0.00 55 1006.3
20260505034544 59 144 0.0 6.1 0.00 0.00 0.00 54 1006.1
20260505033047 59 142 0.0 3.5 0.00 0.00 0.00 53 1006.1
20260505031547 59 213 0.0 6.1 0.00 0.00 0.00 53 1006.0
20260505030043 58 186 0.0 6.1 0.00 0.00 0.00 54 1006.1
20260505024542 54 250 0.9 7.8 0.00 0.00 0.00 61 1006.0
20260505023045 51 213 0.0 0.0 0.00 0.00 0.00 71 1005.9
20260505021542 52 213 0.0 0.0 0.00 0.00 0.00 69 1005.7
20260505020040 52 213 0.0 0.0 0.00 0.00 0.00 67 1005.7
20260505014600 53 213 0.0 0.0 0.00 0.00 0.00 66 1005.5
20260505013042 53 213 0.0 0.0 0.00 0.00 0.00 66 1005.4
20260505011539 54 213 0.0 0.0 0.00 0.00 0.00 64 1005.2
20260505010038 54 213 0.0 0.0 0.00 0.00 0.00 61 1005.0
20260505004542 55 213 0.0 0.0 0.00 0.00 0.00 61 1004.8
20260505003037 56 213 0.0 0.0 0.00 0.00 0.00 59 1004.6
20260505001537 57 213 0.0 0.0 0.00 0.00 0.00 55 1004.4
20260505000040 60 213 0.0 0.0 0.00 0.00 0.00 50 1004.3
20260504234548 62 213 0.0 0.0 0.00 0.00 0.00 44 1004.0
20260504233033 65 211 0.0 0.0 0.00 0.00 0.00 39 1003.9
20260504231527 66 227 0.0 2.6 0.00 0.00 0.00 36 1003.8
20260504230026 67 204 0.0 3.5 0.00 0.00 0.00 34 1003.5
20260504224528 68 193 0.0 5.2 0.00 0.00 0.00 33 1003.3
20260504223025 68 167 0.0 7.8 0.00 0.00 0.00 33 1003.3
20260504221529 69 228 0.9 7.8 0.00 0.00 0.00 32 1003.2
20260504220024 69 147 0.0 7.8 0.00 0.00 0.00 32 1003.2
20260504214523 69 297 2.6 12.2 0.00 0.00 0.00 32 1003.1
20260504213044 69 150 0.0 9.6 0.00 0.00 0.00 33 1003.3
20260504211522 69 199 0.0 13.0 0.00 0.00 0.00 32 1003.3
20260504210026 70 164 0.9 8.7 0.00 0.00 0.00 32 1003.2
20260504204523 71 271 0.9 7.8 0.00 0.00 0.00 31 1003.1
20260504203021 71 254 0.0 7.8 0.00 0.00 0.00 31 1003.1
20260504201525 71 211 0.0 10.4 0.00 0.00 0.00 32 1003.1
20260504200019 71 159 0.9 12.2 0.00 0.00 0.00 31 1003.2
20260504194519 70 238 1.7 9.6 0.00 0.00 0.00 33 1003.3
20260504193017 70 215 0.0 10.4 0.00 0.00 0.00 33 1003.3
20260504191518 70 229 2.6 11.3 0.00 0.00 0.00 36 1003.3
20260504190010 69 204 1.7 9.6 0.00 0.00 0.00 39 1003.3
20260504184514 66 218 0.0 8.7 0.00 0.00 0.00 37 1003.7
20260504183018 66 231 0.0 5.2 0.00 0.00 0.00 38 1003.9
20260504181510 66 290 0.0 7.0 0.00 0.00 0.00 36 1003.7
20260504180010 66 220 0.0 5.2 0.00 0.00 0.00 34 1003.7
20260504174617 66 205 0.0 5.2 0.00 0.00 0.00 34 1003.8
20260504173015 67 196 0.9 11.3 0.00 0.00 0.00 32 1003.9
20260504171510 68 315 2.6 13.9 0.00 0.00 0.00 33 1003.7
20260504110117 45 219 0.0 0.0 0.00 0.00 0.00 71 1007.0
20260504081529 40 236 0.0 0.0 0.00 0.00 0.00 74 1007.0